Wind_Speed
15 17 18 18 19 21 21 19 16 17 16 15 15 14 11 10 9 9 8 10 10 11 13 14 15 16 16 17 17 17 17 18 18 18 18 19 21 22 22 21 20 18 16
13 16 19 18 20 22 20 18 17 17 16 16 16 13 11 9 9 10 9 11 12 13 14 15 16 17 18 18 18 18 19 20 20 21 21 22 24 24 23 23 23 21 20
13 15 16 16 17 16 15 13 12 12 12 14 14 12 11 11 12 13 13 14 16 16 16 17 18 18 19 19 19 19 20 21 22 23 23 24 25 25 26 26 26 26 25
13 13 12 12 13 12 10 9 9 10 10 11 12 13 13 14 14 15 16 17 18 18 18 18 18 18 18 18 18 19 20 20 22 24 24 24 25 25 27 28 28 28 29
11 11 11 11 12 14 14 12 11 9 10 10 10 12 13 15 15 14 15 16 17 18 20 19 18 19 19 20 20 21 23 23 24 25 26 26 28 28 29 30 31 32 34
11 12 12 9 11 13 12 11 12 11 10 9 8 9 10 11 10 9 9 11 13 15 16 17 18 19 21 23 24 25 26 26 26 27 27 28 31 30 32 33 36 35 36
13 11 8 6 8 8 6 6 10 13 12 10 9 8 8 9 8 8 10 12 13 15 16 16 18 20 21 24 25 26 28 29 29 29 30 31 32 32 33 35 37 34 36
13 8 2 6 7 8 8 11 12 12 13 12 10 9 9 11 11 13 15 16 17 17 16 16 18 20 22 25 26 26 27 29 30 30 32 33 32 34 35 35 34 34 35
14 11 4 2 5 8 10 13 11 10 11 11 10 11 12 14 17 18 19 19 19 19 19 20 21 23 24 26 27 27 28 30 31 30 31 32 33 34 34 33 33 33 33
15 11 8 6 3 8 11 11 10 10 10 12 12 13 14 17 19 21 21 19 19 20 21 22 23 24 25 27 28 29 29 31 32 33 34 34 35 35 35 34 34 34 34
12 12 11 10 6 3 10 14 14 13 13 14 15 16 17 19 21 21 19 18 18 20 21 22 23 25 25 27 29 30 31 32 34 35 36 36 37 36 37 36 36 36 36
12 12 11 11 10 5 5 13 14 12 13 15 16 17 19 20 19 18 17 17 17 18 18 19 20 22 23 24 26 27 29 30 33 34 35 35 36 37 38 39 38 39 38
11 12 12 12 11 9 6 5 9 13 16 18 18 19 21 22 21 19 19 19 18 18 18 20 21 22 23 24 25 26 27 29 32 34 36 36 36 37 38 39 41 41 41
9 9 9 10 10 10 10 12 14 18 19 18 21 22 21 20 18 16 17 18 18 18 20 21 22 24 24 24 25 27 30 31 33 35 37 37 38 38 39 41 43 45 46
9 8 8 7 6 8 11 13 13 13 13 15 19 20 20 20 18 19 20 18 17 18 20 21 23 24 24 25 28 32 35 36 37 39 41 41 42 44 44 44 45 48 49
8 7 8 7 6 7 9 10 11 12 12 14 17 18 18 18 18 22 22 20 19 20 22 23 25 26 28 31 35 37 39 41 42 44 46 48 48 49 50 49 47 49 51
8 7 8 8 6 6 9 10 11 12 13 15 17 18 19 20 21 23 22 21 21 23 26 28 30 32 35 37 39 41 44 47 49 50 50 53 55 55 55 54 53 54 56
12 10 9 8 5 6 9 12 13 14 15 17 17 18 18 18 19 20 21 21 22 24 27 30 34 38 41 42 43 45 48 52 53 54 55 57 58 59 60 61 62 61 62
14 13 12 9 10 11 13 15 16 17 19 20 22 22 22 22 22 22 22 22 21 25 31 33 36 40 43 45 47 50 54 57 58 58 60 61 61 62 64 67 69 67 67
16 16 14 13 14 16 16 17 18 21 23 24 26 26 27 27 27 28 28 28 29 34 37 39 40 40 44 46 49 53 57 60 60 63 64 65 66 68 68 69 70 69 68
19 19 17 19 20 20 22 22 22 25 26 26 27 28 31 31 33 35 36 35 34 37 40 42 43 45 48 48 50 54 58 60 63 63 65 65 69 71 71 68 63 61 60
27 25 24 24 24 25 27 28 28 29 31 30 31 32 35 36 36 36 39 39 40 43 44 45 48 50 52 53 55 57 59 61 63 64 66 69 70 66 62 56 51 49 47
30 29 30 30 28 30 30 31 32 33 37 37 36 37 39 41 41 40 43 46 48 49 49 50 54 54 54 57 58 59 61 63 64 66 69 66 60 51 51 51 47 46 45
32 33 34 32 31 32 33 34 36 38 40 42 42 42 44 47 46 47 49 50 52 53 54 56 56 56 56 58 60 62 62 62 60 56 53 49 45 43 44 45 44 45 47
36 37 36 36 34 33 35 38 39 40 42 45 45 48 53 55 52 53 51 46 45 50 53 54 54 56 59 60 61 62 60 56 51 47 44 44 43 42 43 45 47 49 51
37 39 39 39 36 35 37 38 40 43 45 49 49 52 57 53 50 47 47 47 50 52 54 56 57 58 58 59 60 59 56 51 48 47 45 45 44 42 46 50 52 53 54
Wind_Direction
257 259 268 270 268 265 260 262 273 270 265 269 272 270 261 255 257 257 249 248 246 247 247 247 248 249 249 247 245 247 248 248 248 248 248 247 249 253 259 262 262 262 260
287 286 286 285 283 281 276 275 274 268 262 264 268 270 269 272 276 275 270 264 259 257 258 257 256 255 254 253 252 252 252 251 249 249 248 248 251 257 262 265 265 264 261
319 317 302 294 291 289 280 268 260 254 250 249 252 254 259 266 274 276 271 263 257 256 257 257 258 258 257 257 255 255 255 255 256 256 256 256 256 259 262 265 268 270 268
310 316 314 312 306 298 284 265 248 239 236 235 239 245 252 261 267 269 266 264 262 260 259 260 263 264 263 261 258 258 259 258 258 258 259 262 262 263 263 266 269 271 272
307 299 303 312 306 300 285 264 244 231 226 222 231 246 256 264 268 274 276 273 270 265 261 259 258 260 260 260 260 264 267 267 262 259 260 262 264 263 263 265 266 266 268
331 305 291 296 301 297 284 268 241 213 215 222 236 255 265 270 277 282 282 278 276 270 263 261 259 257 260 261 263 267 270 267 262 260 262 264 263 264 265 267 268 267 271
344 322 291 265 278 283 263 267 246 244 244 248 250 251 258 266 276 282 286 286 283 277 271 267 265 265 267 267 268 268 269 268 264 263 266 266 265 267 269 271 275 276 276
356 350 255 232 245 238 257 271 267 258 246 247 244 249 259 266 272 279 285 286 287 286 281 277 277 275 271 271 270 268 269 270 267 266 266 267 268 268 270 272 273 273 272
11 6 6 252 215 209 230 256 254 240 239 246 254 261 265 272 278 281 284 283 282 278 275 274 278 278 276 275 273 271 271 271 270 270 270 270 271 272 271 269 269 269 269
20 16 20 1 275 244 246 243 247 251 262 265 270 275 279 282 285 289 289 285 280 277 276 278 280 277 276 277 276 274 274 274 274 274 273 274 274 274 274 272 271 269 268
19 15 22 27 26 276 229 225 237 253 265 266 268 276 287 290 289 289 290 291 288 285 283 282 282 279 278 279 281 282 281 281 281 281 281 282 281 280 278 277 276 275 273
6 5 12 20 29 24 226 228 241 267 284 287 283 284 292 291 285 285 292 292 293 294 292 287 284 281 281 281 282 284 284 282 282 282 282 282 282 281 281 281 280 278 275
356 358 358 5 22 27 13 314 282 282 289 292 289 291 296 292 288 287 289 293 298 298 294 291 288 285 284 286 285 283 282 282 281 281 282 283 284 284 283 281 278 275 274
335 345 359 1 3 352 334 317 300 296 298 294 289 290 293 299 300 306 309 302 295 296 295 291 288 285 285 286 286 285 288 289 285 284 285 283 281 280 282 281 279 276 274
311 316 332 346 345 325 315 314 312 310 309 301 292 295 300 302 291 299 305 299 293 289 287 285 285 284 281 282 285 288 292 292 291 288 285 283 280 281 283 283 280 277 275
292 292 301 310 318 334 334 326 320 316 310 304 300 298 300 299 293 288 286 285 284 287 291 292 291 288 288 291 293 293 292 289 287 285 283 283 281 280 281 281 278 275 273
297 284 295 296 310 342 344 330 319 307 300 302 301 296 292 291 289 288 288 289 292 298 300 298 294 292 292 292 292 291 289 288 287 285 282 281 280 279 280 280 277 276 274
299 293 290 280 283 310 320 316 311 307 307 310 309 303 296 296 299 300 299 299 301 306 306 303 297 293 290 289 287 287 287 285 282 281 279 278 278 279 280 278 277 276 276
288 289 291 278 281 286 294 301 302 301 305 307 309 310 305 302 302 302 301 299 296 303 307 305 300 297 291 286 284 283 283 282 281 280 278 276 276 277 278 279 278 277 275
275 281 287 286 289 292 295 291 294 296 302 306 310 308 307 302 298 296 295 292 291 300 305 305 300 299 295 288 284 284 284 284 284 283 281 280 279 278 277 276 277 276 274
265 277 282 288 292 299 302 298 294 295 296 301 307 306 306 303 298 292 287 288 291 293 298 300 301 299 296 290 287 286 286 285 283 281 279 279 278 277 277 277 275 275 276
259 265 270 276 283 295 299 297 297 294 295 299 301 303 304 299 295 290 285 286 288 290 293 296 298 302 298 292 291 289 288 287 285 284 281 279 278 278 275 274 275 275 274
258 263 270 272 279 291 295 294 293 295 299 300 301 298 299 299 289 285 289 289 289 289 292 295 297 296 293 292 294 293 290 288 287 285 284 284 282 275 271 271 273 272 272
259 264 271 273 280 289 293 294 296 298 298 296 298 300 300 296 291 287 296 301 298 293 292 292 295 295 294 293 293 293 292 289 286 285 286 285 280 276 273 271 271 273 274
261 266 273 277 282 288 293 294 294 297 301 297 293 296 296 295 291 288 293 298 298 291 289 291 294 295 294 294 295 295 293 291 289 286 284 281 280 278 274 272 273 273 273
267 270 273 277 280 287 292 291 292 295 302 302 299 299 295 293 292 292 292 293 294 293 293 293 293 293 294 295 296 296 294 292 290 288 286 284 283 280 278 277 277 276 274
Height
5896 5895 5895 5894 5894 5894 5895 5895 5897 5898 5897 5897 5898 5899 5899 5899 5898 5898 5898 5900 5900 5900 5901 5902 5902 5903 5903 5904 5904 5905 5906 5906 5906 5907 5906 5906 5907 5907 5907 5907 5907 5907 5907
5895 5894 5892 5891 5891 5892 5893 5894 5895 5896 5895 5895 5896 5897 5897 5897 5896 5897 5896 5897 5897 5897 5898 5898 5899 5899 5899 5900 5901 5902 5903 5903 5903 5903 5903 5904 5904 5904 5904 5903 5903 5903 5904
5893 5891 5890 5890 5890 5890 5889 5890 5890 5891 5891 5891 5892 5892 5893 5893 5893 5893 5893 5893 5894 5895 5895 5895 5895 5895 5895 5896 5897 5898 5899 5900 5900 5900 5901 5901 5901 5901 5900 5899 5899 5899 5900
5890 5889 5889 5889 5888 5887 5887 5887 5888 5888 5888 5889 5889 5889 5889 5890 5890 5889 5888 5889 5890 5891 5891 5891 5891 5891 5892 5893 5893 5894 5894 5895 5895 5895 5896 5896 5896 5896 5895 5895 5895 5895 5895
5888 5887 5887 5887 5886 5886 5885 5885 5884 5884 5885 5885 5885 5886 5886 5888 5888 5887 5886 5886 5886 5886 5887 5887 5886 5887 5887 5888 5889 5889 5890 5891 5891 5890 5890 5891 5891 5890 5890 5890 5890 5890 5889
5884 5884 5883 5883 5883 5883 5883 5882 5882 5882 5883 5883 5883 5883 5884 5885 5885 5884 5883 5883 5883 5883 5883 5883 5883 5884 5883 5883 5884 5884 5884 5885 5886 5885 5885 5885 5884 5883 5883 5883 5883 5882 5882
5882 5880 5879 5880 5880 5880 5881 5882 5883 5883 5883 5882 5881 5881 5881 5882 5882 5882 5883 5882 5882 5881 5880 5880 5880 5880 5879 5879 5879 5879 5878 5878 5880 5880 5878 5878 5878 5877 5876 5876 5877 5876 5875
5881 5879 5877 5876 5877 5878 5879 5880 5881 5881 5880 5880 5879 5880 5880 5880 5880 5880 5880 5879 5879 5879 5879 5878 5877 5877 5876 5875 5875 5874 5874 5872 5873 5873 5872 5870 5870 5869 5869 5869 5869 5869 5869
5881 5879 5877 5876 5876 5876 5877 5877 5878 5879 5878 5878 5878 5879 5879 5879 5878 5877 5877 5877 5877 5877 5876 5874 5873 5872 5871 5870 5869 5869 5869 5866 5866 5865 5865 5864 5864 5862 5862 5862 5861 5861 5861
5882 5880 5877 5876 5875 5875 5874 5875 5877 5877 5877 5877 5877 5877 5877 5877 5876 5875 5874 5873 5872 5871 5870 5868 5867 5866 5866 5865 5864 5863 5862 5861 5860 5859 5858 5857 5856 5855 5854 5854 5855 5854 5853
5883 5881 5878 5876 5874 5872 5872 5873 5874 5874 5874 5874 5875 5875 5874 5874 5872 5871 5869 5867 5866 5864 5864 5863 5862 5861 5861 5860 5859 5858 5857 5856 5854 5852 5850 5850 5849 5847 5847 5847 5846 5846 5845
5882 5880 5878 5875 5873 5872 5871 5871 5872 5871 5871 5871 5872 5872 5871 5870 5868 5866 5864 5863 5861 5860 5859 5858 5857 5857 5856 5855 5854 5853 5852 5850 5848 5845 5843 5842 5841 5840 5839 5839 5838 5836 5836
5882 5880 5877 5874 5872 5871 5871 5871 5870 5869 5869 5869 5869 5868 5866 5864 5863 5862 5860 5858 5857 5856 5855 5854 5853 5852 5851 5849 5848 5847 5845 5844 5842 5839 5837 5835 5833 5832 5831 5830 5829 5827 5826
5881 5879 5875 5872 5870 5869 5868 5868 5867 5866 5866 5865 5864 5864 5862 5860 5858 5856 5854 5853 5851 5850 5849 5848 5847 5846 5844 5842 5841 5840 5839 5837 5834 5831 5828 5827 5824 5822 5821 5819 5818 5817 5816
5879 5877 5874 5871 5869 5868 5867 5865 5864 5864 5863 5862 5861 5859 5858 5856 5854 5853 5851 5849 5847 5846 5844 5842 5841 5839 5837 5835 5834 5833 5830 5828 5825 5823 5818 5817 5815 5812 5810 5808 5806 5805 5804
5878 5876 5873 5871 5868 5866 5865 5864 5862 5861 5859 5858 5857 5855 5853 5851 5850 5848 5846 5844 5842 5840 5838 5836 5834 5832 5830 5828 5826 5823 5821 5818 5814 5812 5809 5805 5804 5801 5797 5795 5794 5792 5791
5874 5873 5871 5869 5867 5865 5863 5862 5860 5858 5857 5855 5853 5851 5849 5847 5845 5843 5841 5838 5836 5834 5832 5829 5827 5824 5821 5818 5815 5813 5810 5807 5804 5800 5797 5792 5788 5786 5783 5782 5779 5779 5778
5871 5869 5868 5867 5865 5863 5861 5859 5857 5855 5854 5852 5849 5847 5844 5842 5840 5837 5835 5833 5830 5828 5826 5823 5820 5817 5813 5810 5806 5802 5799 5795 5791 5789 5785 5780 5776 5772 5769 5767 5766 5764 5761
5866 5866 5865 5864 5862 5861 5859 5856 5855 5853 5851 5848 5846 5843 5840 5838 5835 5832 5829 5826 5823 5821 5819 5816 5812 5809 5804 5800 5796 5792 5788 5783 5779 5775 5770 5765 5761 5759 5755 5751 5750 5749 5746
5862 5862 5862 5860 5859 5858 5856 5854 5852 5849 5846 5844 5841 5838 5835 5833 5830 5826 5824 5821 5817 5814 5811 5808 5804 5799 5794 5789 5784 5780 5776 5771 5766 5763 5758 5753 5749 5744 5741 5737 5733 5731 5728
5858 5857 5857 5856 5854 5852 5851 5849 5846 5844 5841 5839 5836 5834 5831 5828 5824 5820 5817 5813 5810 5806 5802 5798 5794 5789 5783 5777 5772 5768 5763 5757 5751 5747 5741 5737 5732 5727 5723 5720 5718 5716 5714
5853 5852 5851 5850 5848 5846 5844 5842 5839 5837 5834 5832 5830 5827 5824 5821 5818 5814 5810 5806 5801 5797 5793 5788 5783 5776 5770 5764 5759 5754 5748 5742 5734 5729 5724 5718 5714 5709 5706 5704 5704 5703 5701
5846 5845 5843 5842 5841 5839 5837 5834 5831 5829 5827 5824 5821 5819 5816 5812 5809 5806 5802 5797 5792 5787 5782 5776 5770 5763 5757 5749 5743 5737 5730 5723 5717 5711 5705 5700 5698 5694 5693 5692 5690 5689 5689
5839 5837 5834 5833 5832 5830 5828 5825 5822 5820 5818 5814 5811 5808 5805 5802 5798 5794 5790 5785 5780 5774 5769 5762 5756 5748 5741 5733 5726 5720 5714 5705 5699 5695 5689 5685 5684 5682 5681 5679 5677 5676 5675
5831 5829 5827 5825 5824 5822 5820 5816 5814 5810 5807 5804 5800 5796 5793 5789 5785 5781 5776 5771 5766 5759 5753 5746 5740 5733 5725 5719 5712 5705 5698 5690 5683 5680 5677 5675 5673 5670 5669 5668 5666 5664 5663
5821 5819 5818 5817 5815 5814 5811 5807 5803 5800 5797 5793 5788 5784 5780 5775 5771 5767 5763 5758 5752 5745 5738 5732 5725 5719 5711 5704 5697 5690 5684 5679 5673 5668 5665 5662 5660 5659 5657 5655 5652 5650 5649